STARLINK-32909, 62894

Orbit data source: Space-Track

STARLINK-32909, 62894 is a payload satellite owned by SpaceX/Seattle (US) in LEO that was launched on Tue, 04 Feb 2025 UTC via an FALCON 9 launch vehicle from the Air Force Eastern Test Range (AFETR). Payload-class satellites include a variety of spacecraft equipped with specific instruments for various scientific and technological missions. These include communications satellites like Starlink; space stations such as the ISS; scientific satellites like the Hubble; Earth observation satellites from companies like Planet Labs, Umbra, and HawkEye 360; GPS; miniature CubeSats for education and research; and military/defense satellites.

Loading next visibility...
Identifier
62894, 2025-024R
Orbit
LEO
Country
Flag of USUS
Related business
Manufacturer
SpaceX/Seattle
Mission
Operational Commercial Communications
Bus & Motor
STARLINK V2M, Unknown motor
Mass
730 kg wet, ~700 kg dry
Launch date (UTC)
2025-02-04 (9 months ago)
Launch vehicle
FALCON 9
Launch site
Air Force Eastern Test Range (AFETR)
Object type
Payload
Rocket body
Debris
Shape & HBR
Box + 2 Pan, 17.7 m
Radar Cross Section
33.884 m², Large (>1 m²)

Expand to show TLE details & history
Last TLE update: 18 hours ago

TLE from 18 hours ago
0 STARLINK-32909
1 62894U 25024R   25300.43718985  .00031683  00000-0  11557-2 0  9999
2 62894  43.0024 358.1684 0000671 279.1371  80.9405 15.27584870 41887
Epoch: 2025-10-27T10:29Z
TLE epoch observation values (Epoch: 2025-10-27T10:29:33.203Z)
Latitude
0.00002°
Longitude
164.74103°
Altitude
482.738 km
Speed
7.626 km/s
True Right ascension
23h 52m 40s
True Declination
0° 00' 00"
Sunlit
Object was in full shadow at epoch
Visualization orbit readout
Latitude
Unknown
Longitude
Unknown
Altitude
Unknown
Speed
Unknown
Apparent Right ascension
Unknown
Apparent Declination
Unknown
Sunlit
N/A
Visualization observer readout
Local Sidereal Time
23:42:40
Azimuth
Unknown
Elevation
Unknown
Doppler factor
Unknown
Orbital elements
Apogee altitude
485.44 km
Perigee altitude
484.519 km
Semi-major axis
6,863.116 km
Eccentricity
0.00007
Inclination
43.0024°
RAAN
358.1684°
Arg. of periapsis
279.1371°
True anomaly
80.94809°
Mean anomaly
80.9405°
Eccentric anomaly
80.9443°
Mean motion
3.81734 °/min
Orbital period
94.31 mins
BSTAR
0.0011557
Loading maneuver chart data...
Computing Atmospheric mass density...
Loading historical data...
Loading historical data...
Loading historical data...
Loading historical data...
Loading historical data...
Loading historical data...
Loading historical data...

Documentation

Showing up to 5 results
|